Location: Argenteuil
(48.9394°N, 2.2367°E)
Time: 17:26:32
(UTC+00:00)

Daily predictions for brighter satellites

Satellite Brightness Start Highest point End
(mag) Time Altitude Azimuth Time Altitude Azimuth Time Altitude Azimuth
Terra 3.9 20:01:47 10° E 20:04:23 15° NE 20:07:00 10° NNE
USA 215 3.9 19:58:46 10° NE 20:05:12 62° NNW 20:11:37 10° W
Meteor 1-11 Rocket 4.3 20:01:38 10° N 20:07:24 47° ENE 20:13:02 10° SE
Cosmos 1340 Rocket 4.4 20:05:44 10° NNE 20:08:55 21° ENE 20:12:03 10° ESE
Resurs 1-3 3.9 20:07:16 10° S 20:11:38 71° WSW 20:16:02 10° NNW
Cosmos 1898 Rocket 4.4 20:09:25 10° SSE 20:13:59 30° E 20:18:36 10° NE
CZ-2C R/B 4.4 20:12:22 10° NNE 20:16:34 36° E 20:20:49 10° SSE
Cosmos 923 Rocket 4.1 20:14:15 10° NNW 20:19:33 75° ENE 20:24:51 10° SSE
USA 245 3.6 20:18:58 10° ESE 20:20:52 23° ENE 20:23:01 10° N
ARIANE 5 R/B 3.6 20:19:05 10° SE 20:22:58 33° ENE 20:26:52 10° N
Cosmos 1271 Rocket 2.8 20:19:14 10° S 20:23:11 61° E 20:27:09 10° NNE
Cosmos 2278 Rocket 2.7 20:21:08 10° SW 20:26:45 66° WNW 20:32:25 10° NNE
Cosmos 1461 4.0 20:23:08 10° S 20:27:08 28° ESE 20:31:05 10° ENE
Cosmos 2369 Rocket 3.7 20:26:39 10° SE 20:30:08 17° E 20:33:38 10° ENE
Cosmos 1666 2.8 20:26:58 10° NNW 20:30:41 73° W 20:34:23 10° S
Cosmos 1818 3.8 20:25:59 10° NW 20:31:29 68° NE 20:36:36 12° SE
Meteor 1-10 Rocket 4.2 20:26:45 10° S 20:32:21 73° E 20:38:05 10° NNE
Landsat 7 3.8 20:28:57 10° SSE 20:33:42 89° E 20:38:30 10° NNW
SL-24 R/B - RUBIN 2 4.0 20:28:16 10° NW 20:33:48 84° SW 20:38:18 12° SE
Cosmos 1536 3.2 20:32:40 10° N 20:36:36 50° ENE 20:40:06 12° SSE
ERBS 2.2 20:34:19 10° NW 20:37:38 88° SSW 20:40:21 14° SE
SPOT 5 3.7 20:39:51 12° SE 20:44:20 43° ENE 20:49:23 10° N
Cosmos 2154 Rocket 4.1 20:38:23 10° N 20:44:42 69° ENE 20:50:44 11° SSE
Cosmos 1812 3.9 20:42:05 10° SSW 20:45:47 44° WNW 20:49:31 10° N
OBJECT-B 3.8 20:44:27 10° WSW 20:45:50 12° W 20:47:13 10° WNW
Nadezhda 1 Rocket 4.1 20:40:14 10° S 20:46:22 60° E 20:52:26 10° NNE
Cosmos 2074 Rocket 4.1 20:40:54 10° N 20:47:13 81° W 20:53:31 10° S
Cosmos 2184 Rocket 4.1 20:44:34 10° NNW 20:50:47 79° W 20:56:55 10° S
ERS-1 Rocket 3.4 20:49:06 14° SE 20:53:10 49° ENE 20:58:02 10° N
ISS -3.8 20:53:05 10° WSW 20:56:28 87° NNW 20:59:51 10° ENE
Cosmos 2112 Rocket 4.1 20:52:30 10° NNW 20:57:54 82° WSW 21:02:28 14° SSE
Cosmos 1869 Rocket 3.6 20:55:50 10° NNW 21:00:12 82° W 21:04:04 13° S
Cosmos 967 Rocket 4.4 20:55:07 10° SSW 21:01:19 71° ESE 21:07:35 10° NE
Spot 2 Rocket 3.5 21:00:39 14° SSE 21:05:01 89° E 21:10:06 10° NNW
JB-3 4.4 21:01:16 10° NNE 21:05:04 54° E 21:08:00 16° S
Cosmos 1937 Rocket 3.6 21:00:10 10° S 21:05:10 57° ESE 21:10:17 10° NNE
Cosmos 44 4.1 21:00:47 10° NW 21:06:00 49° WSW 21:10:07 15° S
Cosmos 2228 Rocket 3.3 21:03:27 10° SSW 21:07:54 74° W 21:12:27 10° N
Cosmos 1743 2.8 21:04:44 10° N 21:08:36 61° ENE 21:11:02 21° SSE
SPOT 1/Viking Rocket 3.9 21:05:52 11° S 21:10:50 64° WSW 21:16:00 10° NNW
RESURS DK-1 3.5 21:07:23 10° NNW 21:11:12 33° NE 21:13:58 16° ESE
Cosmos 2084 Rocket 4.2 21:09:26 10° NW 21:13:31 44° SW 21:16:25 18° S
Resurs 01 Rocket 3.3 21:09:44 10° SSW 21:13:38 30° W 21:17:33 10° NNW
Cosmos 1707 Rocket 3.6 21:14:44 17° S 21:18:05 64° E 21:22:29 10° NNE
Meteor 1-27 Rocket 4.0 21:12:39 10° SSW 21:18:33 79° WNW 21:24:32 10° N
CARTOSAT-1 3.6 21:15:33 17° S 21:18:48 77° WSW 21:23:09 10° NNW
Cosmos 1680 Rocket 4.4 21:17:31 10° NNW 21:22:35 45° WSW 21:26:59 13° S
Cosmos 858 Rocket 4.4 21:18:57 10° SSW 21:24:09 78° ESE 21:29:25 10° NNE
Cosmos 1867 4.0 21:23:54 14° S 21:28:13 41° ESE 21:33:20 10° NE
SJ 16-02 3.9 21:24:59 10° WSW 21:28:31 23° NW 21:32:03 10° N
Tianhe-1 2.8 21:26:18 10° SW 21:28:08 19° SSW 21:28:08 19° SSW
DNEPR-1 R/B 4.1 21:23:25 10° SW 21:29:19 86° NW 21:34:12 10° NE
Cosmos 2181 Rocket 4.3 21:25:49 20° SSE 21:29:49 48° E 21:35:40 10° NNE
Meteor 1-19 Rocket 4.4 21:28:38 21° SSE 21:31:56 49° E 21:37:10 10° NNE
Cosmos 2297 3.9 21:28:15 10° SW 21:33:55 73° WNW 21:39:38 10° NNE
Cosmos 44 Rocket 4.4 21:29:27 10° NNW 21:34:26 41° NE 21:38:15 16° ESE
BREEZE-M R/B 1.6 21:33:12 10° W 21:35:37 80° SSW 21:36:27 39° ESE
SL-27 R/B 4.0 21:33:58 10° N 21:36:47 24° ENE 21:38:02 20° E
BREEZE M DEB (TANK) 2.8 21:34:45 10° W 21:37:15 23° SW 21:37:17 23° SW
Cosmos 372 Rocket 3.9 21:36:41 17° S 21:40:33 64° ESE 21:45:37 10° NNE
Cosmos 1544 4.2 21:37:54 10° NNW 21:41:18 38° W 21:43:38 17° SSW
Terra 1.8 21:38:39 25° SSE 21:41:27 90° ENE 21:46:15 10° NNW
Cosmos 1515 3.6 21:39:36 25° S 21:41:42 86° ESE 21:45:31 10° N
Cosmos 1733 Rocket 3.0 21:38:33 10° N 21:42:54 88° W 21:45:11 28° S
Cosmos 1943 Rocket 2.3 21:38:31 10° SSW 21:44:09 79° WNW 21:49:47 10° NNE
Cosmos 2082 Rocket 4.3 21:40:45 10° WNW 21:44:24 18° W 21:48:05 10° SW
Cosmos 1340 Rocket 4.0 21:41:42 10° NNW 21:45:31 38° W 21:48:11 17° SSW
USA 215 4.4 21:41:33 10° ENE 21:47:40 44° N 21:53:47 10° WNW
Cosmos 1656 Rocket 4.0 21:46:52 26° SSE 21:49:30 43° ESE 21:54:43 10° NE
ATLAS 2AS CENTAUR R/B 3.9 21:44:17 10° NW 21:50:33 32° WSW 21:55:12 15° SSW
Cosmos 2341 Rocket 4.1 21:44:20 10° NNW 21:50:45 78° W 21:55:10 21° S
Okean 1 3.2 21:49:16 27° S 21:51:22 89° W 21:55:22 10° N
Cosmos 2218 Rocket 4.0 21:47:49 10° N 21:54:11 78° E 21:58:01 26° SSE
Cosmos 494 Rocket 4.4 21:53:08 10° NNW 21:58:13 52° ENE 22:00:49 27° SE
ARIANE 5 R/B 4.1 21:56:25 14° SSW 21:59:26 29° W 22:03:15 10° NW
SL-8 Rocket 4.1 21:56:30 10° N 22:02:50 80° W 22:06:45 25° S
H-2A R/B 3.4 21:59:35 10° NNE 22:03:47 82° WNW 22:05:59 27° SSW
Cosmos 1908 Rocket 3.7 22:00:27 10° N 22:04:54 61° ENE 22:06:34 36° SE
Cosmos 2298 Rocket 4.3 22:02:56 31° SSE 22:05:09 50° ESE 22:10:16 10° NNE
Cosmos 1461 4.0 22:01:28 10° WSW 22:06:02 51° NW 22:10:32 10° NNE
Cosmos 2369 Rocket 2.2 22:08:17 13° SSW 22:13:23 85° WNW 22:19:06 10° NNE
ATLAS CENTAUR R/B 0.9 22:12:29 42° SSW 22:13:34 70° SE 22:17:22 10° NE
NOSS 2-1 (D) 4.4 22:12:59 10° NW 22:17:35 63° NE 22:21:25 23° ESE
Cosmos 1238 Rocket 4.2 22:15:09 10° NNW 22:20:32 47° W 22:23:11 24° SSW
Okean 1-7 3.2 22:21:21 42° SE 22:22:22 55° E 22:26:36 10° NNE
SPOT 5 4.4 22:19:04 16° SSW 22:22:28 32° W 22:27:16 10° NNW
COSMOS 2487 4.0 22:21:22 10° N 22:24:11 24° ENE 22:24:59 22° E
Cosmos 2344 4.3 22:17:07 10° NW 22:26:09 81° NE 22:35:50 19° SE
Spot 4 4.2 22:24:53 34° SE 22:26:46 58° ENE 22:31:32 10° N
Cosmos 2242 Rocket 3.6 22:27:54 43° SSE 22:29:15 71° E 22:33:45 10° NNE
Cosmos 2150 Rocket 3.9 22:28:55 32° S 22:31:24 75° ESE 22:36:40 10° NNE
Cosmos 1975 3.5 22:28:27 10° NNW 22:32:16 46° W 22:33:30 34° SW
Cosmos 1125 Rocket 3.5 22:31:07 37° S 22:33:02 63° ESE 22:38:12 10° NNE
ISS -2.9 22:30:10 10° WNW 22:33:29 51° N 22:36:27 12° ENE
Cosmos 1703 Rocket 3.5 22:34:26 46° S 22:35:42 78° E 22:40:09 10° NNE
Cosmos 1782 Rocket 3.5 22:33:18 10° N 22:37:45 74° E 22:38:55 48° SSE
Cosmos 1378 3.5 22:38:54 46° ESE 22:39:04 47° E 22:42:40 10° NNE
SL-08 R/B 4.5 22:35:09 10° N 22:41:27 84° W 22:44:29 34° S
Cosmos 1607 4.2 22:39:44 10° SW 22:46:12 74° NW 22:52:44 10° NE
RESURS DK-1 3.5 22:45:30 10° NW 22:49:11 31° WSW 22:49:50 29° SW
Cosmos 724 4.4 22:46:12 31° SSW 22:49:17 67° ESE 22:55:30 10° NE
Lacrosse 5 1.9 22:48:53 43° S 22:50:07 54° SE 22:55:05 10° ENE
Cosmos 1934 Rocket 4.3 22:46:43 10° N 22:52:43 54° ENE 22:55:20 32° SE
Cosmos 1805 3.7 22:51:23 10° N 22:55:10 46° ENE 22:55:42 43° ESE
Cosmos 1066 Rocket 4.4 22:55:52 39° SSE 22:57:48 60° E 23:03:16 10° NNE
Cosmos 1356 Rocket 3.4 22:56:40 10° NNW 23:00:59 81° W 23:01:50 57° S
Cosmos 2227 Rocket 3.9 22:57:45 10° NNW 23:02:35 28° NE 23:07:25 10° ESE
Cosmos 2297 Rocket 3.5 22:59:24 10° NNW 23:04:35 35° NE 23:08:40 15° ESE
Cosmos 1821 Rocket 4.1 22:58:42 10° NNW 23:05:06 74° W 23:07:52 36° S
Okean 3 3.3 23:06:38 60° S 23:07:22 87° ESE 23:11:37 10° N
Meteor 1-12 Rocket 4.3 23:04:18 10° NNW 23:10:06 71° W 23:12:13 40° S
SL-27 R/B 4.0 23:09:00 10° NW 23:11:32 24° W 23:11:32 24° W
NOSS 2-1 (E) 4.3 23:10:07 10° NW 23:15:04 67° SW 23:17:30 38° SSE
Cosmos 44 Rocket 4.0 23:11:08 10° NW 23:16:02 42° WSW 23:16:57 38° SW
Cosmos 1766 3.5 23:12:53 10° N 23:16:46 55° ENE 23:17:13 51° ESE
Meteor 1-15 Rocket 4.2 23:11:52 10° N 23:17:40 86° ENE 23:19:48 41° SSE
Terra 4.2 23:17:55 10° WSW 23:19:54 12° W 23:21:53 10° WNW
Cosmos 2221 Rocket 3.7 23:23:40 52° SE 23:24:28 63° E 23:29:00 10° NNE
COSMOS 2455 3.0 23:19:32 10° NNW 23:25:35 73° NE 23:28:40 30° SE
USA 215 3.9 23:23:44 10° E 23:30:04 55° NNE 23:36:25 10° WNW
ALOS 2 2.7 23:29:20 53° SSW 23:30:05 63° WSW 23:34:28 10° NNW
Nimbus 7 Rocket 4.4 23:24:34 10° NNE 23:30:28 67° ESE 23:32:34 41° S
COBE Rocket 4.0 23:31:00 47° S 23:32:28 75° WSW 23:37:41 10° NNW
Cosmos 1535 Rocket 4.5 23:27:10 10° N 23:33:30 86° W 23:36:02 40° S
Cosmos 1300 Rocket 3.5 23:29:15 10° NNW 23:33:37 69° W 23:34:19 57° SSW
Cosmos 1269 Rocket 4.1 23:28:29 10° NNW 23:33:45 66° WSW 23:35:08 47° S
USA 81 4.3 23:29:31 10° N 23:34:47 62° E 23:36:30 41° SE
Cosmos 1470 3.9 23:32:12 10° N 23:35:47 33° ENE 23:36:35 30° E
Cosmos 2251 Rocket 4.3 23:35:10 10° NNW 23:40:14 46° ENE 23:42:54 25° ESE
EO 1 Del DPAF 4.4 23:42:39 10° NE 23:45:57 30° E 23:45:57 30° E
Cosmos 1733 3.4 23:43:06 10° NNW 23:46:51 55° W 23:46:57 55° WSW
Cosmos 1842 3.5 23:46:42 54° ESE 23:46:53 55° E 23:50:42 10° NNE
Meteor 1-23 Rocket 4.3 23:46:20 40° SSW 23:48:33 77° WNW 23:54:24 10° N
Thor Agena Rocket 3.6 23:45:53 10° NNE 23:51:11 76° ESE 23:52:46 46° S
ATLAS CENTAUR R/B 3.7 23:50:02 10° W 23:52:52 20° NNW 23:55:48 10° NNE
